Flag for Gaza Strip Weather past 2 weeks in Khan Yunis, Gaza Strip

Now
82 °F

Sunny.


Feels Like: 87 °F
Forecast: 73 / 84 °F
Wind: 10 mph from Northwest

Location: El Arish

Current Time: Jul 7, 2015 at 6:53:08 PM

Latest Report: Jul 7, 2015 at 6:00 PM


Visibility: 10 mi

Pressure: 29.83 "Hg

Humidity: 70%

Dew point: 72 °F

Location of Khan YunisLocation

Historic Weather in Khan Yunis — Graph

°F

Khan Yunis temperature yesterday

Maximum temperature yesterday: 86 °F (at 4:00 PM)
Minimum temperature yesterday: 70 °F (at 2:00 AM)
Average temperature yesterday: 77 °F

Past Weeks' High & Low Weather Summary

 TemperatureHumidityPressure
High106 °F (Jun 27, 4:00 PM)100% (Jun 23, 2:00 AM)29.98 "Hg (Jun 23, 2:00 AM)
Low64 °F (Jun 23, 6:00 AM)9% (Jun 27, 4:00 PM)29.56 "Hg (Jun 27, 6:00 PM)
Average77 °F75%29.86 "Hg
* Reported Jun 22 7:00 PM — Jul 7 5:00 PM, Khan Yunis, Weather by CustomWeather, © 2015

Note: Actual official high and low records may vary slightly from our data, if they occured in-between our weather recording intervals... More about our weather records

Advertising

Khan Yunis weather history for previous 24 hours

 ConditionsComfort  
Time TempWeatherWind HumidityBarometerVisibility
5:00 PM
Tue, Jul 7
84 °FSunny.10 mph66%29.83 "Hg10 mi
4:00 PM86 °FSunny.10 mph62%29.83 "Hg10 mi
3:00 PM84 °FSunny.10 mph66%29.83 "Hg10 mi
2:00 PM86 °FSunny.8 mph62%29.83 "Hg10 mi
1:00 PM86 °FPassing clouds.7 mph62%29.86 "HgN/A
12:00 PM86 °FScattered clouds.6 mph59%29.86 "HgN/A
11:00 AM82 °FSunny.6 mph70%29.86 "Hg10 mi
10:00 AM82 °FScattered clouds.3 mph70%29.86 "HgN/A
9:00 AM81 °FScattered clouds.3 mph84%29.86 "HgN/A
8:00 AM77 °FScattered clouds.5 mph100%29.86 "HgN/A
7:00 AM75 °FScattered clouds.5 mph100%29.86 "HgN/A
6:00 AM70 °FScattered clouds.2 mph100%29.86 "HgN/A
5:00 AM68 °FClear.No wind100%29.86 "Hg10 mi
4:00 AM70 °FClear.No wind100%29.86 "Hg10 mi
3:00 AM70 °FClear.No wind100%29.86 "Hg10 mi
2:00 AM72 °FClear.2 mph100%29.86 "Hg10 mi
1:00 AM72 °FClear.No wind100%29.86 "Hg10 mi
12:00 AM72 °FClear.No wind100%29.86 "Hg10 mi
11:00 PM
Mon, Jul 6
73 °FClear.No wind100%29.89 "Hg10 mi
10:00 PM75 °FClear.3 mph94%29.86 "Hg10 mi
9:00 PM77 °FClear.3 mph94%29.86 "Hg10 mi
8:00 PM79 °FClear.8 mph84%29.86 "Hg10 mi
7:00 PM81 °FSunny.10 mph79%29.86 "Hg10 mi
6:00 PM82 °FSunny.12 mph74%29.86 "Hg10 mi
Weather by CustomWeather, © 2015

See weather overviewHow to use our weather pages